Regional Weather Roundup
Issued by NWS

Home | Current Version | Previous Version | Text Only | Print | Product List | Glossary Off
Versions: 1 2 3 4 5 6 7 8 9 10 11 12 13 14 15 16 17 18 19 20 21 22 23 24 25 26 27 28 29 30 31 32 33 34 35 36 37 38 39 40 41 42 43 44 45 46 47 48 49 50

000
ASUS43 KFSD 311402
RWRSD

WEATHER ROUNDUP FOR SOUTH DAKOTA
NATIONAL WEATHER SERVICE SIOUX FALLS SD
900 AM CDT FRI JUL 31 2015

NOTE: "FAIR" INDICATES FEW OR NO CLOUDS BELOW 12,000 FEET WITH NO
SIGNIFICANT WEATHER AND/OR OBSTRUCTIONS TO VISIBILITY.


SDZ001>005-009-010-012>017-311500-
NORTHWEST AND NORTH CENTRAL SOUTH DAKOTA

CITY           SKY/WX    TMP DP  RH WIND       PRES   REMARKS
BUFFALO          N/A     64  50  60 CALM      30.18S
FAITH            N/A     69  53  56 CALM      30.21S
MOBRIDGE       SUNNY     68  61  78 CALM      30.16F
$$

SDZ012>016-024>037-041>051-057-063-072>074-311500-
SOUTHWEST AND SOUTH CENTRAL SOUTH DAKOTA

CITY           SKY/WX    TMP DP  RH WIND       PRES   REMARKS
RAPID CTY ARPT SUNNY     66  51  58 N10       30.23R
PIERRE         SUNNY     70  56  61 E6        30.17S
CUSTER         SUNNY     68  51  54 CALM      30.38R
ELLSWORTH AFB  SUNNY     66  50  55 N9        30.23R
PHILIP         SUNNY     68  59  73 NE5       30.19R
PINE RIDGE     SUNNY     65  55  70 CALM      30.24S
WINNER         FAIR      74  58  57 SE6       30.18S
$$

SDZ004>011-016>023-039-040-311500-
NORTHEAST SOUTH DAKOTA

CITY           SKY/WX    TMP DP  RH WIND       PRES   REMARKS
ABERDEEN       SUNNY     66  58  75 SW6       30.16S
WATERTOWN      SUNNY     71  54  54 NW3       30.17S
BROOKINGS      SUNNY     68  59  73 N3        30.19S
SISSETON         N/A     71  58  63 N7        30.13R
$$

SDZ017-020-022-023-036>040-048>070-311500-
SOUTHEAST SOUTH DAKOTA

CITY           SKY/WX    TMP DP  RH WIND       PRES   REMARKS
SIOUX FALLS    MOSUNNY   71  62  73 N3        30.17S
HURON          SUNNY     71  57  61 NE3       30.16S
CHAMBERLAIN    SUNNY     70  58  66 NE5       30.18R
MITCHELL       SUNNY     70  61  73 CALM      30.17S
YANKTON        SUNNY     72  66  83 CALM      30.13
$$

ABBREVIATIONS USED IN REMARKS
   TC - TEMPERATURE IN CELSIUS
  WCI - WIND CHILL INDEX
   HX - HEAT INDEX
  VSB - VISIBILITY



USA.gov is the U.S. government's official web portal to all federal, state and local government web resources and services.